Terug naar catalogus

STARLINK-33575

ActiefCommunicatieVLEO
NORAD 62760·PAYLOAD·🇺🇸 United States

Gelanceerd Jan 21, 2025 vanaf Vandenberg Space Force Base

Loading…

Volgende Passages (komende 24 uur)

TLE

VersSource: CelesTrak SupGP

Epoch: Sep 15, 2026, 03:42 UTC

1 62760C 25015C   26258.15465278  .00047016  00000+0  13893-2 0  2586
2 62760  53.1562 158.5380 0001281  82.9378 266.9384 15.34362542    18

Volg STARLINK-33575 in realtime met AllMySat

Download on the App Store